Year,Month,Day,Hour,Minute,Value (Times are PST for temperature in C)
2013,04,24,00,00,5.30
2013,04,24,00,01,5.30
2013,04,24,00,02,5.40
2013,04,24,00,03,5.40
2013,04,24,00,04,5.40
2013,04,24,00,05,5.40
2013,04,24,00,06,5.40
2013,04,24,00,07,5.40
2013,04,24,00,08,5.40
2013,04,24,00,09,5.40
2013,04,24,00,10,5.40
2013,04,24,00,11,5.40
2013,04,24,00,12,5.40
2013,04,24,00,13,5.40
2013,04,24,00,14,5.50
2013,04,24,00,15,5.50
2013,04,24,00,16,5.50
2013,04,24,00,17,5.50
2013,04,24,00,18,5.50
2013,04,24,00,19,5.50
2013,04,24,00,20,5.50
2013,04,24,00,21,5.60
2013,04,24,00,22,5.60
2013,04,24,00,23,5.60
2013,04,24,00,24,5.60
2013,04,24,00,25,5.60
2013,04,24,00,26,5.60
2013,04,24,00,27,5.60
2013,04,24,00,28,5.60
2013,04,24,00,29,5.60
2013,04,24,00,30,5.60
2013,04,24,00,31,5.60
2013,04,24,00,32,5.60
2013,04,24,00,33,5.60
2013,04,24,00,34,5.50
2013,04,24,00,35,5.50
2013,04,24,00,36,5.50
2013,04,24,00,37,5.40
2013,04,24,00,38,5.40
2013,04,24,00,39,5.40
2013,04,24,00,40,5.40
2013,04,24,00,41,5.40
2013,04,24,00,42,5.30
2013,04,24,00,43,5.30
2013,04,24,00,44,5.30
2013,04,24,00,45,5.30
2013,04,24,00,46,5.20
2013,04,24,00,47,5.20
2013,04,24,00,48,5.20
2013,04,24,00,49,5.20
2013,04,24,00,50,5.10
2013,04,24,00,51,5.10
2013,04,24,00,52,5.10
2013,04,24,00,53,5.10
2013,04,24,00,54,5.10
2013,04,24,00,55,5.00
2013,04,24,00,56,5.00
2013,04,24,00,57,5.00
2013,04,24,00,58,4.90
2013,04,24,00,59,4.90
2013,04,24,01,00,4.90
2013,04,24,01,01,4.90
2013,04,24,01,02,4.90
2013,04,24,01,03,4.80
2013,04,24,01,04,4.80
2013,04,24,01,05,4.80
2013,04,24,01,06,4.80
2013,04,24,01,07,4.80
2013,04,24,01,08,4.80
2013,04,24,01,09,4.80
2013,04,24,01,10,4.80
2013,04,24,01,11,4.80
2013,04,24,01,12,4.70
2013,04,24,01,13,4.70
2013,04,24,01,14,4.70
2013,04,24,01,15,4.70
2013,04,24,01,16,4.70
2013,04,24,01,17,4.70
2013,04,24,01,18,4.60
2013,04,24,01,19,4.60
2013,04,24,01,20,4.60
2013,04,24,01,21,4.60
2013,04,24,01,22,4.60
2013,04,24,01,23,4.60
2013,04,24,01,24,4.60
2013,04,24,01,25,4.50
2013,04,24,01,26,4.50
2013,04,24,01,27,4.50
2013,04,24,01,28,4.50
2013,04,24,01,29,4.50
2013,04,24,01,30,4.40
2013,04,24,01,31,4.40
2013,04,24,01,32,4.40
2013,04,24,01,33,4.40
2013,04,24,01,34,4.40
2013,04,24,01,35,4.40
2013,04,24,01,36,4.40
2013,04,24,01,37,4.40
2013,04,24,01,38,4.40
2013,04,24,01,39,4.40
2013,04,24,01,40,4.40
2013,04,24,01,41,4.40
2013,04,24,01,42,4.40
2013,04,24,01,43,4.40
2013,04,24,01,44,4.40
2013,04,24,01,45,4.40
2013,04,24,01,46,4.30
2013,04,24,01,47,4.30
2013,04,24,01,48,4.30
2013,04,24,01,49,4.30
2013,04,24,01,50,4.30
2013,04,24,01,51,4.30
2013,04,24,01,52,4.20
2013,04,24,01,53,4.20
2013,04,24,01,54,4.20
2013,04,24,01,55,4.20
2013,04,24,01,56,4.20
2013,04,24,01,57,4.10
2013,04,24,01,58,4.10
2013,04,24,01,59,4.10
2013,04,24,02,00,4.10
2013,04,24,02,01,4.10
2013,04,24,02,02,4.10
2013,04,24,02,03,4.10
2013,04,24,02,04,4.10
2013,04,24,02,05,4.10
2013,04,24,02,06,4.10
2013,04,24,02,07,4.00
2013,04,24,02,08,4.00
2013,04,24,02,09,4.00
2013,04,24,02,10,4.00
2013,04,24,02,11,4.00
2013,04,24,02,12,3.90
2013,04,24,02,13,3.90
2013,04,24,02,14,3.90
2013,04,24,02,15,3.90
2013,04,24,02,16,3.90
2013,04,24,02,17,3.90
2013,04,24,02,18,3.90
2013,04,24,02,19,3.90
2013,04,24,02,20,3.90
2013,04,24,02,21,3.90
2013,04,24,02,22,3.90
2013,04,24,02,23,3.90
2013,04,24,02,24,3.90
2013,04,24,02,25,3.90
2013,04,24,02,26,3.90
2013,04,24,02,27,3.90
2013,04,24,02,28,3.90
2013,04,24,02,29,4.00
2013,04,24,02,30,4.00
2013,04,24,02,31,4.00
2013,04,24,02,32,4.00
2013,04,24,02,33,4.00
2013,04,24,02,34,4.00
2013,04,24,02,35,4.00
2013,04,24,02,36,4.00
2013,04,24,02,37,4.00
2013,04,24,02,38,4.00
2013,04,24,02,39,4.00
2013,04,24,02,40,4.00
2013,04,24,02,41,4.00
2013,04,24,02,42,4.10
2013,04,24,02,43,4.10
2013,04,24,02,44,4.10
2013,04,24,02,45,4.10
2013,04,24,02,46,4.00
2013,04,24,02,47,4.00
2013,04,24,02,48,4.00
2013,04,24,02,49,4.00
2013,04,24,02,50,4.00
2013,04,24,02,51,4.10
2013,04,24,02,52,4.10
2013,04,24,02,53,4.10
2013,04,24,02,54,4.10
2013,04,24,02,55,4.10
2013,04,24,02,56,4.10
2013,04,24,02,57,4.20
2013,04,24,02,58,4.20
2013,04,24,02,59,4.20
2013,04,24,03,00,4.20
2013,04,24,03,01,4.20
2013,04,24,03,02,4.20
2013,04,24,03,03,4.20
2013,04,24,03,04,4.20
2013,04,24,03,05,4.20
2013,04,24,03,06,4.20
2013,04,24,03,07,4.20
2013,04,24,03,08,4.20
2013,04,24,03,09,4.20
2013,04,24,03,10,4.20
2013,04,24,03,11,4.20
2013,04,24,03,12,4.20
2013,04,24,03,13,4.20
2013,04,24,03,14,4.20
2013,04,24,03,15,4.20
2013,04,24,03,16,4.30
2013,04,24,03,17,4.20
2013,04,24,03,18,4.30
2013,04,24,03,19,4.20
2013,04,24,03,20,4.20
2013,04,24,03,21,4.20
2013,04,24,03,22,4.20
2013,04,24,03,23,4.20
2013,04,24,03,24,4.20
2013,04,24,03,25,4.20
2013,04,24,03,26,4.20
2013,04,24,03,27,4.20
2013,04,24,03,28,4.20
2013,04,24,03,29,4.20
2013,04,24,03,30,4.20
2013,04,24,03,31,4.20
2013,04,24,03,32,4.10
2013,04,24,03,33,4.10
2013,04,24,03,34,4.10
2013,04,24,03,35,4.10
2013,04,24,03,36,4.10
2013,04,24,03,37,4.10
2013,04,24,03,38,4.10
2013,04,24,03,39,4.10
2013,04,24,03,40,4.00
2013,04,24,03,41,4.00
2013,04,24,03,42,4.00
2013,04,24,03,43,4.00
2013,04,24,03,44,4.00
2013,04,24,03,45,3.90
2013,04,24,03,46,3.90
2013,04,24,03,47,3.90
2013,04,24,03,48,3.80
2013,04,24,03,49,3.80
2013,04,24,03,50,3.80
2013,04,24,03,51,3.80
2013,04,24,03,52,3.80
2013,04,24,03,53,3.80
2013,04,24,03,54,3.80
2013,04,24,03,55,3.80
2013,04,24,03,56,3.80
2013,04,24,03,57,3.80
2013,04,24,03,58,3.80
2013,04,24,03,59,3.80
2013,04,24,04,00,3.80
2013,04,24,04,01,3.80
2013,04,24,04,02,3.80
2013,04,24,04,03,3.70
2013,04,24,04,04,3.80
2013,04,24,04,05,3.80
2013,04,24,04,06,3.70
2013,04,24,04,07,3.80
2013,04,24,04,08,3.80
2013,04,24,04,09,3.80
2013,04,24,04,10,3.80
2013,04,24,04,11,3.80
2013,04,24,04,12,3.90
2013,04,24,04,13,4.00
2013,04,24,04,14,4.00
2013,04,24,04,15,4.10
2013,04,24,04,16,4.10
2013,04,24,04,17,4.20
2013,04,24,04,18,4.30
2013,04,24,04,19,4.30
2013,04,24,04,20,4.30
2013,04,24,04,21,4.30
2013,04,24,04,22,4.20
2013,04,24,04,23,4.20
2013,04,24,04,24,4.20
2013,04,24,04,25,4.20
2013,04,24,04,26,4.20
2013,04,24,04,27,4.20
2013,04,24,04,28,4.20
2013,04,24,04,29,4.10
2013,04,24,04,30,4.10
2013,04,24,04,31,4.10
2013,04,24,04,32,4.10
2013,04,24,04,33,4.10
2013,04,24,04,34,4.10
2013,04,24,04,35,4.10
2013,04,24,04,36,4.10
2013,04,24,04,37,4.10
2013,04,24,04,38,4.10
2013,04,24,04,39,4.10
2013,04,24,04,40,4.10
2013,04,24,04,41,4.10
2013,04,24,04,42,4.00
2013,04,24,04,43,4.00
2013,04,24,04,44,4.00
2013,04,24,04,45,3.90
2013,04,24,04,46,3.90
2013,04,24,04,47,3.90
2013,04,24,04,48,3.90
2013,04,24,04,49,3.80
2013,04,24,04,50,3.80
2013,04,24,04,51,3.80
2013,04,24,04,52,3.70
2013,04,24,04,53,3.70
2013,04,24,04,54,3.70
2013,04,24,04,55,3.70
2013,04,24,04,56,3.70
2013,04,24,04,57,3.70
2013,04,24,04,58,3.70
2013,04,24,04,59,3.70
2013,04,24,05,00,3.70
2013,04,24,05,01,3.80
2013,04,24,05,02,3.80
2013,04,24,05,03,3.80
2013,04,24,05,04,3.80
2013,04,24,05,05,3.80
2013,04,24,05,06,3.90
2013,04,24,05,07,3.90
2013,04,24,05,08,3.90
2013,04,24,05,09,4.00
2013,04,24,05,10,4.00
2013,04,24,05,11,4.10
2013,04,24,05,12,4.10
2013,04,24,05,13,4.10
2013,04,24,05,14,4.10
2013,04,24,05,15,4.10
2013,04,24,05,16,4.10
2013,04,24,05,17,4.10
2013,04,24,05,18,4.10
2013,04,24,05,19,4.20
2013,04,24,05,20,4.20
2013,04,24,05,21,4.10
2013,04,24,05,22,4.10
2013,04,24,05,23,4.10
2013,04,24,05,24,4.00
2013,04,24,05,25,4.00
2013,04,24,05,26,3.90
2013,04,24,05,27,3.90
2013,04,24,05,28,3.90
2013,04,24,05,29,3.90
2013,04,24,05,30,3.80
2013,04,24,05,31,3.80
2013,04,24,05,32,3.80
2013,04,24,05,33,3.80
2013,04,24,05,34,3.80
2013,04,24,05,35,3.70
2013,04,24,05,36,3.70
2013,04,24,05,37,3.70
2013,04,24,05,38,3.70
2013,04,24,05,39,3.70
2013,04,24,05,40,3.70
2013,04,24,05,41,3.70
2013,04,24,05,42,3.70
2013,04,24,05,43,3.60
2013,04,24,05,44,3.60
2013,04,24,05,45,3.60
2013,04,24,05,46,3.60
2013,04,24,05,47,3.70
2013,04,24,05,48,3.70
2013,04,24,05,49,3.70
2013,04,24,05,50,3.70
2013,04,24,05,51,3.70
2013,04,24,05,52,3.70
2013,04,24,05,53,3.70
2013,04,24,05,54,3.80
2013,04,24,05,55,3.80
2013,04,24,05,56,3.80
2013,04,24,05,57,3.80
2013,04,24,05,58,3.80
2013,04,24,05,59,3.80
2013,04,24,06,00,3.80
2013,04,24,06,01,3.80
2013,04,24,06,02,3.90
2013,04,24,06,03,3.90
2013,04,24,06,04,3.90
2013,04,24,06,05,3.90
2013,04,24,06,06,3.90
2013,04,24,06,07,3.90
2013,04,24,06,08,3.90
2013,04,24,06,09,3.90
2013,04,24,06,10,3.90
2013,04,24,06,11,3.90
2013,04,24,06,12,3.90
2013,04,24,06,13,3.90
2013,04,24,06,14,3.90
2013,04,24,06,15,3.90
2013,04,24,06,16,3.90
2013,04,24,06,17,3.90
2013,04,24,06,18,3.90
2013,04,24,06,19,3.90
2013,04,24,06,20,3.90
2013,04,24,06,21,3.80
2013,04,24,06,22,3.80
2013,04,24,06,23,3.80
2013,04,24,06,24,3.80
2013,04,24,06,25,3.70
2013,04,24,06,26,3.70
2013,04,24,06,27,3.70
2013,04,24,06,28,3.70
2013,04,24,06,29,3.80
2013,04,24,06,30,3.80
2013,04,24,06,31,3.90
2013,04,24,06,32,3.90
2013,04,24,06,33,3.90
2013,04,24,06,34,4.00
2013,04,24,06,35,4.00
2013,04,24,06,36,4.00
2013,04,24,06,37,4.00
2013,04,24,06,38,4.00
2013,04,24,06,39,4.00
2013,04,24,06,40,4.00
2013,04,24,06,41,4.10
2013,04,24,06,42,4.10
2013,04,24,06,43,4.10
2013,04,24,06,44,4.10
2013,04,24,06,45,4.10
2013,04,24,06,46,4.10
2013,04,24,06,47,4.10
2013,04,24,06,48,4.20
2013,04,24,06,49,4.20
2013,04,24,06,50,4.20
2013,04,24,06,51,4.30
2013,04,24,06,52,4.30
2013,04,24,06,53,4.30
2013,04,24,06,54,4.40
2013,04,24,06,55,4.40
2013,04,24,06,56,4.50
2013,04,24,06,57,4.50
2013,04,24,06,58,4.60
2013,04,24,06,59,4.60
2013,04,24,07,00,4.70
2013,04,24,07,01,4.70
2013,04,24,07,02,4.80
2013,04,24,07,03,4.80
2013,04,24,07,04,4.80
2013,04,24,07,05,4.90
2013,04,24,07,06,4.90
2013,04,24,07,07,5.00
2013,04,24,07,08,5.00
2013,04,24,07,09,5.10
2013,04,24,07,10,5.20
2013,04,24,07,11,5.20
2013,04,24,07,12,5.30
2013,04,24,07,13,5.40
2013,04,24,07,14,5.40
2013,04,24,07,15,5.40
2013,04,24,07,16,5.50
2013,04,24,07,17,5.50
2013,04,24,07,18,5.60
2013,04,24,07,19,5.60
2013,04,24,07,20,5.70
2013,04,24,07,21,5.70
2013,04,24,07,22,5.70
2013,04,24,07,23,5.80
2013,04,24,07,24,5.90
2013,04,24,07,25,5.90
2013,04,24,07,26,6.00
2013,04,24,07,27,6.10
2013,04,24,07,28,6.20
2013,04,24,07,29,6.30
2013,04,24,07,30,6.30
2013,04,24,07,31,6.40
2013,04,24,07,32,6.50
2013,04,24,07,33,6.50
2013,04,24,07,34,6.60
2013,04,24,07,35,6.70
2013,04,24,07,36,6.70
2013,04,24,07,37,6.80
2013,04,24,07,38,6.80
2013,04,24,07,39,6.80
2013,04,24,07,40,6.80
2013,04,24,07,41,6.80
2013,04,24,07,42,6.80
2013,04,24,07,43,6.80
2013,04,24,07,44,6.80
2013,04,24,07,45,6.80
2013,04,24,07,46,6.90
2013,04,24,07,47,6.90
2013,04,24,07,48,6.90
2013,04,24,07,49,7.00
2013,04,24,07,50,7.00
2013,04,24,07,51,7.10
2013,04,24,07,52,7.20
2013,04,24,07,53,7.20
2013,04,24,07,54,7.20
2013,04,24,07,55,7.30
2013,04,24,07,56,7.30
2013,04,24,07,57,7.30
2013,04,24,07,58,7.30
2013,04,24,07,59,7.40
2013,04,24,08,00,7.40
2013,04,24,08,01,7.50
2013,04,24,08,02,7.50
2013,04,24,08,03,7.60
2013,04,24,08,04,7.60
2013,04,24,08,05,7.60
2013,04,24,08,06,7.60
2013,04,24,08,07,7.70
2013,04,24,08,08,7.70
2013,04,24,08,09,7.70
2013,04,24,08,10,7.80
2013,04,24,08,11,7.80
2013,04,24,08,12,7.80
2013,04,24,08,13,7.90
2013,04,24,08,14,8.00
2013,04,24,08,15,8.10
2013,04,24,08,16,8.20
2013,04,24,08,17,8.30
2013,04,24,08,18,8.40
2013,04,24,08,19,8.50
2013,04,24,08,20,8.50
2013,04,24,08,21,8.60
2013,04,24,08,22,8.70
2013,04,24,08,23,8.80
2013,04,24,08,24,8.80
2013,04,24,08,25,8.90
2013,04,24,08,26,9.00
2013,04,24,08,27,9.10
2013,04,24,08,28,9.20
2013,04,24,08,29,9.30
2013,04,24,08,30,9.40
2013,04,24,08,31,9.50
2013,04,24,08,32,9.50
2013,04,24,08,33,9.60
2013,04,24,08,34,9.70
2013,04,24,08,35,9.70
2013,04,24,08,36,9.80
2013,04,24,08,37,9.90
2013,04,24,08,38,10.00
2013,04,24,08,39,10.10
2013,04,24,08,40,10.20
2013,04,24,08,41,10.30
2013,04,24,08,42,10.40
2013,04,24,08,43,10.50
2013,04,24,08,44,10.60
2013,04,24,08,45,10.70
2013,04,24,08,46,10.80
2013,04,24,08,47,10.80
2013,04,24,08,48,10.90
2013,04,24,08,49,11.00
2013,04,24,08,50,11.10
2013,04,24,08,51,11.10
2013,04,24,08,52,11.20
2013,04,24,08,53,11.30
2013,04,24,08,54,11.40
2013,04,24,08,55,11.50
2013,04,24,08,56,11.60
2013,04,24,08,57,11.70
2013,04,24,08,58,11.70
2013,04,24,08,59,11.80
2013,04,24,09,00,11.80
2013,04,24,09,01,11.90
2013,04,24,09,02,11.90
2013,04,24,09,03,12.00
2013,04,24,09,04,12.00
2013,04,24,09,05,12.10
2013,04,24,09,06,12.10
2013,04,24,09,07,12.10
2013,04,24,09,08,12.10
2013,04,24,09,09,12.10
2013,04,24,09,10,12.10
2013,04,24,09,11,12.10
2013,04,24,09,12,12.10
2013,04,24,09,13,12.10
2013,04,24,09,14,12.10
2013,04,24,09,15,12.10
2013,04,24,09,16,12.20
2013,04,24,09,17,12.20
2013,04,24,09,18,12.30
2013,04,24,09,19,12.30
2013,04,24,09,20,12.40
2013,04,24,09,21,12.50
2013,04,24,09,22,12.50
2013,04,24,09,23,12.60
2013,04,24,09,24,12.60
2013,04,24,09,25,12.70
2013,04,24,09,26,12.70
2013,04,24,09,27,12.70
2013,04,24,09,28,12.80
2013,04,24,09,29,12.80
2013,04,24,09,30,12.90
2013,04,24,09,31,12.90
2013,04,24,09,32,13.00
2013,04,24,09,33,13.00
2013,04,24,09,34,13.00
2013,04,24,09,35,13.10
2013,04,24,09,36,13.00
2013,04,24,09,37,13.00
2013,04,24,09,38,12.90
2013,04,24,09,39,12.90
2013,04,24,09,40,12.90
2013,04,24,09,41,12.80
2013,04,24,09,42,12.80
2013,04,24,09,43,12.70
2013,04,24,09,44,12.70
2013,04,24,09,45,12.60
2013,04,24,09,46,12.60
2013,04,24,09,47,12.60
2013,04,24,09,48,12.50
2013,04,24,09,49,12.50
2013,04,24,09,50,12.50
2013,04,24,09,51,12.60
2013,04,24,09,52,12.60
2013,04,24,09,53,12.70
2013,04,24,09,54,12.70
2013,04,24,09,55,12.80
2013,04,24,09,56,12.80
2013,04,24,09,57,12.80
2013,04,24,09,58,12.90
2013,04,24,09,59,12.90
2013,04,24,10,00,12.90
2013,04,24,10,01,13.00
2013,04,24,10,02,13.00
2013,04,24,10,03,13.00
2013,04,24,10,04,13.00
2013,04,24,10,05,13.10
2013,04,24,10,06,13.10
2013,04,24,10,07,13.20
2013,04,24,10,08,13.20
2013,04,24,10,09,13.10
2013,04,24,10,10,13.00
2013,04,24,10,11,12.90
2013,04,24,10,12,12.80
2013,04,24,10,13,12.70
2013,04,24,10,14,12.60
2013,04,24,10,15,12.50
2013,04,24,10,16,12.40
2013,04,24,10,17,12.40
2013,04,24,10,18,12.40
2013,04,24,10,19,12.50
2013,04,24,10,20,12.60
2013,04,24,10,21,12.60
2013,04,24,10,22,12.70
2013,04,24,10,23,12.80
2013,04,24,10,24,12.80
2013,04,24,10,25,12.90
2013,04,24,10,26,13.00
2013,04,24,10,27,13.10
2013,04,24,10,28,13.10
2013,04,24,10,29,13.10
2013,04,24,10,30,13.20
2013,04,24,10,31,13.10
2013,04,24,10,32,13.10
2013,04,24,10,33,13.10
2013,04,24,10,34,13.10
2013,04,24,10,35,13.10
2013,04,24,10,36,13.10
2013,04,24,10,37,13.10
2013,04,24,10,38,13.10
2013,04,24,10,39,13.10
2013,04,24,10,40,13.10
2013,04,24,10,41,13.10
2013,04,24,10,42,13.00
2013,04,24,10,43,13.00
2013,04,24,10,44,12.90
2013,04,24,10,45,12.80
2013,04,24,10,46,12.70
2013,04,24,10,47,12.50
2013,04,24,10,48,12.40
2013,04,24,10,49,12.30
2013,04,24,10,50,12.30
2013,04,24,10,51,12.20
2013,04,24,10,52,12.20
2013,04,24,10,53,12.20
2013,04,24,10,54,12.20
2013,04,24,10,55,12.30
2013,04,24,10,56,12.30
2013,04,24,10,57,12.40
2013,04,24,10,58,12.60
2013,04,24,10,59,12.70
2013,04,24,11,00,12.80
2013,04,24,11,01,12.80
2013,04,24,11,02,12.90
2013,04,24,11,03,12.90
2013,04,24,11,04,12.90
2013,04,24,11,05,13.00
2013,04,24,11,06,13.10
2013,04,24,11,07,13.10
2013,04,24,11,08,13.20
2013,04,24,11,09,13.30
2013,04,24,11,10,13.30
2013,04,24,11,11,13.30
2013,04,24,11,12,13.30
2013,04,24,11,13,13.20
2013,04,24,11,14,13.20
2013,04,24,11,15,13.20
2013,04,24,11,16,13.20
2013,04,24,11,17,13.20
2013,04,24,11,18,13.10
2013,04,24,11,19,13.00
2013,04,24,11,20,13.00
2013,04,24,11,21,13.00
2013,04,24,11,22,13.00
2013,04,24,11,23,13.00
2013,04,24,11,24,13.00
2013,04,24,11,25,13.10
2013,04,24,11,26,13.20
2013,04,24,11,27,13.20
2013,04,24,11,28,13.30
2013,04,24,11,29,13.30
2013,04,24,11,30,13.40
2013,04,24,11,31,13.50
2013,04,24,11,32,13.60
2013,04,24,11,33,13.70
2013,04,24,11,34,13.80
2013,04,24,11,35,14.00
2013,04,24,11,36,14.10
2013,04,24,11,37,14.10
2013,04,24,11,38,14.20
2013,04,24,11,39,14.30
2013,04,24,11,40,14.30
2013,04,24,11,41,14.40
2013,04,24,11,42,14.40
2013,04,24,11,43,14.50
2013,04,24,11,44,14.50
2013,04,24,11,45,14.60
2013,04,24,11,46,14.60
2013,04,24,11,47,14.60
2013,04,24,11,48,14.60
2013,04,24,11,49,14.50
2013,04,24,11,50,14.30
2013,04,24,11,51,14.20
2013,04,24,11,52,14.10
2013,04,24,11,53,14.00
2013,04,24,11,54,14.00
2013,04,24,11,55,14.00
2013,04,24,11,56,14.00
2013,04,24,11,57,14.00
2013,04,24,11,58,14.00
2013,04,24,11,59,14.10
2013,04,24,12,00,14.10
2013,04,24,12,01,14.10
2013,04,24,12,02,14.20
2013,04,24,12,03,14.30
2013,04,24,12,04,14.30
2013,04,24,12,05,14.30
2013,04,24,12,06,14.30
2013,04,24,12,07,14.40
2013,04,24,12,08,14.40
2013,04,24,12,09,14.40
2013,04,24,12,10,14.30
2013,04,24,12,11,14.30
2013,04,24,12,12,14.20
2013,04,24,12,13,14.20
2013,04,24,12,14,14.20
2013,04,24,12,15,14.10
2013,04,24,12,16,14.10
2013,04,24,12,17,14.00
2013,04,24,12,18,13.90
2013,04,24,12,19,13.90
2013,04,24,12,20,13.80
2013,04,24,12,21,13.70
2013,04,24,12,22,13.70
2013,04,24,12,23,13.70
2013,04,24,12,24,13.60
2013,04,24,12,25,13.70
2013,04,24,12,26,13.70
2013,04,24,12,27,13.90
2013,04,24,12,28,14.00
2013,04,24,12,29,14.20
2013,04,24,12,30,14.30
2013,04,24,12,31,14.40
2013,04,24,12,32,14.50
2013,04,24,12,33,14.60
2013,04,24,12,34,14.70
2013,04,24,12,35,14.70
2013,04,24,12,36,14.80
2013,04,24,12,37,14.90
2013,04,24,12,38,14.90
2013,04,24,12,39,15.00
2013,04,24,12,40,15.00
2013,04,24,12,41,15.10
2013,04,24,12,42,15.10
2013,04,24,12,43,15.10
2013,04,24,12,44,15.00
2013,04,24,12,45,15.00
2013,04,24,12,46,14.90
2013,04,24,12,47,15.00
2013,04,24,12,48,15.10
2013,04,24,12,49,15.10
2013,04,24,12,50,15.20
2013,04,24,12,51,15.30
2013,04,24,12,52,15.40
2013,04,24,12,53,15.50
2013,04,24,12,54,15.50
2013,04,24,12,55,15.60
2013,04,24,12,56,15.70
2013,04,24,12,57,15.80
2013,04,24,12,58,15.80
2013,04,24,12,59,15.90
2013,04,24,13,00,15.90
2013,04,24,13,01,15.90
2013,04,24,13,02,16.00
2013,04,24,13,03,16.00
2013,04,24,13,04,16.00
2013,04,24,13,05,16.00
2013,04,24,13,06,16.10
2013,04,24,13,07,16.10
2013,04,24,13,08,16.10
2013,04,24,13,09,16.20
2013,04,24,13,10,16.10
2013,04,24,13,11,16.10
2013,04,24,13,12,16.00
2013,04,24,13,13,15.90
2013,04,24,13,14,15.90
2013,04,24,13,15,15.80
2013,04,24,13,16,15.70
2013,04,24,13,17,15.70
2013,04,24,13,18,15.70
2013,04,24,13,19,15.60
2013,04,24,13,20,15.60
2013,04,24,13,21,15.50
2013,04,24,13,22,15.40
2013,04,24,13,23,15.30
2013,04,24,13,24,15.20
2013,04,24,13,25,15.10
2013,04,24,13,26,14.90
2013,04,24,13,27,14.80
2013,04,24,13,28,14.70
2013,04,24,13,29,14.70
2013,04,24,13,30,14.70
2013,04,24,13,31,14.70
2013,04,24,13,32,14.70
2013,04,24,13,33,14.80
2013,04,24,13,34,14.80
2013,04,24,13,35,14.90
2013,04,24,13,36,14.90
2013,04,24,13,37,14.80
2013,04,24,13,38,14.90
2013,04,24,13,39,14.90
2013,04,24,13,40,14.90
2013,04,24,13,41,14.90
2013,04,24,13,42,14.90
2013,04,24,13,43,14.90
2013,04,24,13,44,14.90
2013,04,24,13,45,14.90
2013,04,24,13,46,14.90
2013,04,24,13,47,15.00
2013,04,24,13,48,15.00
2013,04,24,13,49,15.10
2013,04,24,13,50,15.10
2013,04,24,13,51,15.10
2013,04,24,13,52,15.00
2013,04,24,13,53,14.90
2013,04,24,13,54,14.80
2013,04,24,13,55,14.70
2013,04,24,13,56,14.60
2013,04,24,13,57,14.60
2013,04,24,13,58,14.60
2013,04,24,13,59,14.70
2013,04,24,14,00,14.70
2013,04,24,14,01,14.80
2013,04,24,14,02,14.90
2013,04,24,14,03,15.10
2013,04,24,14,04,15.20
2013,04,24,14,05,15.30
2013,04,24,14,06,15.40
2013,04,24,14,07,15.40
2013,04,24,14,08,15.40
2013,04,24,14,09,15.40
2013,04,24,14,10,15.40
2013,04,24,14,11,15.40
2013,04,24,14,12,15.40
2013,04,24,14,13,15.30
2013,04,24,14,14,15.30
2013,04,24,14,15,15.30
2013,04,24,14,16,15.30
2013,04,24,14,17,15.30
2013,04,24,14,18,15.30
2013,04,24,14,19,15.20
2013,04,24,14,20,15.10
2013,04,24,14,21,15.10
2013,04,24,14,22,15.10
2013,04,24,14,23,15.10
2013,04,24,14,24,15.00
2013,04,24,14,25,15.00
2013,04,24,14,26,15.10
2013,04,24,14,27,15.10
2013,04,24,14,28,15.10
2013,04,24,14,29,15.10
2013,04,24,14,30,15.10
2013,04,24,14,31,15.10
2013,04,24,14,32,15.10
2013,04,24,14,33,15.10
2013,04,24,14,34,15.20
2013,04,24,14,35,15.20
2013,04,24,14,36,15.20
2013,04,24,14,37,15.20
2013,04,24,14,38,15.20
2013,04,24,14,39,15.10
2013,04,24,14,40,15.00
2013,04,24,14,41,15.00
2013,04,24,14,42,14.90
2013,04,24,14,43,14.90
2013,04,24,14,44,14.80
2013,04,24,14,45,14.80
2013,04,24,14,46,14.70
2013,04,24,14,47,14.70
2013,04,24,14,48,14.70
2013,04,24,14,49,14.70
2013,04,24,14,50,14.70
2013,04,24,14,51,14.70
2013,04,24,14,52,14.70
2013,04,24,14,53,14.80
2013,04,24,14,54,14.80
2013,04,24,14,55,14.90
2013,04,24,14,56,15.00
2013,04,24,14,57,15.10
2013,04,24,14,58,15.20
2013,04,24,14,59,15.30
2013,04,24,15,00,15.30
2013,04,24,15,01,15.40
2013,04,24,15,02,15.40
2013,04,24,15,03,15.40
2013,04,24,15,04,15.50
2013,04,24,15,05,15.50
2013,04,24,15,06,15.60
2013,04,24,15,07,15.70
2013,04,24,15,08,15.70
2013,04,24,15,09,15.80
2013,04,24,15,10,15.80
2013,04,24,15,11,15.80
2013,04,24,15,12,15.90
2013,04,24,15,13,15.90
2013,04,24,15,14,15.90
2013,04,24,15,15,15.90
2013,04,24,15,16,15.80
2013,04,24,15,17,15.80
2013,04,24,15,18,15.70
2013,04,24,15,19,15.70
2013,04,24,15,20,15.70
2013,04,24,15,21,15.60
2013,04,24,15,22,15.60
2013,04,24,15,23,15.60
2013,04,24,15,24,15.60
2013,04,24,15,25,15.60
2013,04,24,15,26,15.60
2013,04,24,15,27,15.50
2013,04,24,15,28,15.30
2013,04,24,15,29,15.10
2013,04,24,15,30,15.00
2013,04,24,15,31,15.00
2013,04,24,15,32,15.00
2013,04,24,15,33,15.00
2013,04,24,15,34,15.00
2013,04,24,15,35,15.00
2013,04,24,15,36,15.00
2013,04,24,15,37,15.10
2013,04,24,15,38,15.20
2013,04,24,15,39,15.20
2013,04,24,15,40,15.20
2013,04,24,15,41,15.10
2013,04,24,15,42,15.00
2013,04,24,15,43,15.00
2013,04,24,15,44,15.00
2013,04,24,15,45,15.00
2013,04,24,15,46,15.00
2013,04,24,15,47,15.00
2013,04,24,15,48,15.10
2013,04,24,15,49,15.10
2013,04,24,15,50,15.20
2013,04,24,15,51,15.30
2013,04,24,15,52,15.50
2013,04,24,15,53,15.60
2013,04,24,15,54,15.70
2013,04,24,15,55,15.80
2013,04,24,15,56,15.90
2013,04,24,15,57,16.00
2013,04,24,15,58,16.10
2013,04,24,15,59,16.20
2013,04,24,16,00,16.30
2013,04,24,16,01,16.40
2013,04,24,16,02,16.40
2013,04,24,16,03,16.30
2013,04,24,16,04,16.20
2013,04,24,16,05,16.20
2013,04,24,16,06,16.10
2013,04,24,16,07,16.10
2013,04,24,16,08,16.00
2013,04,24,16,09,16.00
2013,04,24,16,10,15.90
2013,04,24,16,11,15.80
2013,04,24,16,12,15.70
2013,04,24,16,13,15.60
2013,04,24,16,14,15.50
2013,04,24,16,15,15.50
2013,04,24,16,16,15.40
2013,04,24,16,17,15.40
2013,04,24,16,18,15.30
2013,04,24,16,19,15.30
2013,04,24,16,20,15.30
2013,04,24,16,21,15.30
2013,04,24,16,22,15.40
2013,04,24,16,23,15.40
2013,04,24,16,24,15.50
2013,04,24,16,25,15.50
2013,04,24,16,26,15.50
2013,04,24,16,27,15.50
2013,04,24,16,28,15.40
2013,04,24,16,29,15.40
2013,04,24,16,30,15.30
2013,04,24,16,31,15.20
2013,04,24,16,32,15.20
2013,04,24,16,33,15.10
2013,04,24,16,34,15.10
2013,04,24,16,35,15.10
2013,04,24,16,36,15.00
2013,04,24,16,37,15.10
2013,04,24,16,38,15.10
2013,04,24,16,39,15.10
2013,04,24,16,40,15.00
2013,04,24,16,41,15.00
2013,04,24,16,42,15.00
2013,04,24,16,43,15.00
2013,04,24,16,44,15.00
2013,04,24,16,45,15.00
2013,04,24,16,46,15.00
2013,04,24,16,47,15.00
2013,04,24,16,48,14.90
2013,04,24,16,49,14.90
2013,04,24,16,50,14.90
2013,04,24,16,51,14.90
2013,04,24,16,52,14.90
2013,04,24,16,53,14.80
2013,04,24,16,54,14.80
2013,04,24,16,55,14.70
2013,04,24,16,56,14.60
2013,04,24,16,57,14.60
2013,04,24,16,58,14.50
2013,04,24,16,59,14.50
2013,04,24,17,00,14.50
2013,04,24,17,01,14.50
2013,04,24,17,02,14.40
2013,04,24,17,03,14.40
2013,04,24,17,04,14.40
2013,04,24,17,05,14.40
2013,04,24,17,06,14.40
2013,04,24,17,07,14.40
2013,04,24,17,08,14.40
2013,04,24,17,09,14.50
2013,04,24,17,10,14.50
2013,04,24,17,11,14.50
2013,04,24,17,12,14.50
2013,04,24,17,13,14.50
2013,04,24,17,14,14.40
2013,04,24,17,15,14.40
2013,04,24,17,16,14.30
2013,04,24,17,17,14.30
2013,04,24,17,18,14.20
2013,04,24,17,19,14.20
2013,04,24,17,20,14.10
2013,04,24,17,21,14.10
2013,04,24,17,22,14.10
2013,04,24,17,23,14.10
2013,04,24,17,24,14.00
2013,04,24,17,25,13.90
2013,04,24,17,26,13.80
2013,04,24,17,27,13.80
2013,04,24,17,28,13.80
2013,04,24,17,29,13.80
2013,04,24,17,30,13.80
2013,04,24,17,31,13.70
2013,04,24,17,32,13.70
2013,04,24,17,33,13.70
2013,04,24,17,34,13.60
2013,04,24,17,35,13.60
2013,04,24,17,36,13.60
2013,04,24,17,37,13.50
2013,04,24,17,38,13.50
2013,04,24,17,39,13.50
2013,04,24,17,40,13.50
2013,04,24,17,41,13.40